YACHTS Weather Reports


time (UTC)temp
C
wind
direction
speed
KPH
gust
KPH
rain 1hr
cm
rain 24hr
cm
rain mn
cm
humidity
%
barometer
mb
20260905024453 13 0 0.0 0.0 0.13 3.48 2.03 92 1013.5
20260905023940 14 0 0.0 6.4 0.08 3.48 2.03 92 1013.6
20260905023427 14 21 0.0 6.4 0.08 3.48 2.01 92 1013.6
20260905022914 14 74 0.0 4.8 0.00 3.48 1.98 92 1013.6
20260905022401 14 0 0.0 0.0 0.00 3.48 1.91 92 1013.6
20260905021848 14 0 0.0 0.0 0.00 3.48 1.91 92 1013.5
20260905020823 14 74 0.0 8.0 0.00 3.48 1.91 92 1013.4
20260905020309 14 61 1.6 8.0 0.00 3.48 1.91 91 1013.4
20260905015756 14 357 3.2 8.0 0.00 3.61 1.91 91 1013.3
20260905015243 14 64 0.0 8.0 0.00 3.61 1.91 91 1013.3
20260905014730 15 0 0.0 0.0 0.00 3.61 1.91 91 1013.2
20260905014217 15 0 0.0 0.0 0.00 3.61 1.91 91 1013.1
20260905013704 15 0 0.0 0.0 0.00 3.61 1.91 91 1013.1
20260905012638 15 0 0.0 0.0 0.00 3.61 1.91 91 1013.0
20260905012125 16 0 0.0 0.0 0.00 3.61 1.91 91 1013.0
20260905011612 16 0 0.0 0.0 0.00 3.61 1.91 91 1013.0
20260905011059 16 0 0.0 0.0 0.00 3.61 1.91 91 1013.0
20260905010546 16 0 0.0 0.0 0.00 3.61 1.91 91 1012.9
20260905010033 16 0 0.0 0.0 0.00 3.61 1.91 91 1012.9
20260905005520 16 0 0.0 0.0 0.00 3.76 1.91 91 1012.8
20260905005007 16 0 0.0 6.4 0.00 3.76 1.91 91 1012.7
20260905004454 17 0 0.0 6.4 0.00 3.76 1.91 92 1012.7
20260905003941 16 180 0.0 6.4 0.00 3.76 1.91 92 1012.6
20260905003428 17 0 0.0 0.0 0.00 3.76 1.91 92 1012.5
20260905002915 16 0 0.0 0.0 0.00 3.76 1.91 91 1012.5
20260905002402 17 228 0.0 6.4 0.00 3.76 1.91 91 1012.5
20260905001849 17 0 0.0 6.4 0.00 3.76 1.91 92 1012.5
20260905000823 17 256 1.6 12.9 0.00 3.76 1.91 92 1012.5
20260905000310 17 264 0.0 12.9 0.00 3.76 1.91 93 1012.4
20260904235757 16 257 0.0 12.9 0.00 3.78 1.91 93 1012.4
20260904235244 16 298 0.0 8.0 0.00 3.78 1.91 93 1012.3
20260904234218 16 313 9.7 14.5 0.03 3.78 1.91 93 1012.2
20260904233705 17 235 9.7 14.5 0.03 3.78 1.91 93 1012.3
20260904233152 17 287 3.2 12.9 0.03 3.78 1.91 93 1012.2
20260904232639 17 271 6.4 14.5 0.03 3.78 1.91 93 1012.2
20260904232126 17 0 0.0 14.5 0.03 3.78 1.91 94 1012.1
20260904231613 16 0 0.0 14.5 0.03 3.78 1.91 94 1012.1
20260904231100 16 273 4.8 17.7 0.03 3.78 1.91 93 1012.1
20260904230547 16 236 3.2 17.7 0.03 3.78 1.91 94 1012.2
20260904230034 16 252 8.0 17.7 0.03 3.78 1.91 94 1012.2
20260904225521 16 275 9.7 16.1 0.03 3.76 1.91 94 1012.1
20260904225008 15 329 9.7 16.1 0.03 3.76 1.91 94 1012.1
20260904224455 15 0 3.2 14.5 0.00 3.76 1.91 94 1012.2
20260904223942 15 252 4.8 14.5 0.00 3.76 1.88 93 1012.2
20260904223429 16 254 0.0 14.5 0.00 3.76 1.88 93 1012.1
20260904222916 16 257 1.6 9.7 0.00 3.76 1.88 94 1012.1
20260904222403 16 0 0.0 0.0 0.00 3.76 1.88 94 1012.0
20260904221337 15 259 4.8 9.7 0.00 3.76 1.88 94 1012.0
20260904220824 16 226 0.0 9.7 0.00 3.76 1.88 94 1012.1
20260904220311 16 170 0.0 3.2 0.00 3.76 1.88 94 1012.1
20260904215758 16 0 0.0 0.0 0.00 3.76 1.88 94 1012.0
20260904215245 16 0 0.0 9.7 0.00 3.76 1.88 93 1012.0
20260904214219 16 201 0.0 9.7 0.00 3.76 1.88 94 1011.9
20260904213706 16 0 0.0 0.0 0.00 3.76 1.88 95 1011.9
20260904213153 16 0 0.0 0.0 0.00 3.76 1.88 95 1011.9
20260904212640 15 0 0.0 0.0 0.00 3.76 1.88 95 1011.8
20260904212127 15 0 0.0 8.0 0.00 3.76 1.88 95 1011.8
20260904211614 15 0 0.0 8.0 0.00 3.76 1.88 95 1011.7
20260904211101 15 0 0.0 8.0 0.00 3.76 1.88 95 1011.7
20260904210548 15 207 0.0 4.8 0.00 3.76 1.88 95 1011.7
20260904210035 15 0 0.0 8.0 0.00 3.76 1.88 95 1011.7
20260904205522 15 0 0.0 8.0 0.00 3.91 1.88 94 1011.8
20260904205009 16 0 0.0 8.0 0.00 3.91 1.88 95 1011.7
20260904204456 16 0 0.0 0.0 0.00 3.91 1.88 95 1011.6
20260904203943 16 0 0.0 0.0 0.00 3.91 1.88 96 1011.7
20260904203430 14 0 0.0 0.0 0.00 3.91 1.88 96 1011.7
20260904202917 15 0 0.0 0.0 0.00 3.91 1.88 96 1011.8
20260904202404 14 0 0.0 0.0 0.00 3.91 1.88 96 1011.8
20260904201851 14 0 0.0 0.0 0.00 3.91 1.88 95 1011.7
20260904200825 14 0 0.0 3.2 0.00 3.91 1.88 95 1011.8
20260904200313 15 235 0.0 3.2 0.00 3.91 1.88 95 1011.7
20260904195759 15 0 0.0 0.0 0.00 3.96 1.88 95 1011.6
20260904195245 15 0 0.0 0.0 0.00 3.96 1.88 96 1011.5
20260904194733 14 0 0.0 0.0 0.00 3.96 1.88 96 1011.5
20260904194220 14 0 0.0 0.0 0.00 3.96 1.88 96 1011.5
20260904193707 14 0 0.0 0.0 0.03 3.96 1.88 96 1011.5
20260904193153 13 0 0.0 0.0 0.03 3.96 1.88 96 1011.5
20260904192641 13 0 0.0 0.0 0.03 3.96 1.88 96 1011.5
20260904192127 14 0 0.0 0.0 0.03 3.96 1.88 96 1011.5
20260904191614 14 0 0.0 0.0 0.03 3.96 1.88 96 1011.5
20260904191101 14 0 0.0 0.0 0.03 3.96 1.88 96 1011.6
20260904190548 14 0 0.0 0.0 0.03 3.96 1.88 96 1011.5
20260904190035 14 0 0.0 0.0 0.03 3.96 1.88 96 1011.5
20260904185522 14 0 0.0 0.0 0.03 4.45 1.88 96 1011.5
20260904184456 14 0 0.0 0.0 0.03 4.45 1.88 96 1011.4
20260904183943 13 0 0.0 0.0 0.03 4.45 1.88 96 1011.3
20260904183430 13 0 0.0 0.0 0.00 4.45 1.85 96 1011.2
20260904182917 13 0 0.0 0.0 0.00 4.45 1.85 96 1011.2
20260904182404 13 0 0.0 0.0 0.00 4.45 1.85 96 1011.2
20260904181851 13 0 0.0 0.0 0.00 4.45 1.85 96 1011.2
20260904180312 13 0 0.0 0.0 0.03 4.45 1.85 96 1011.0
20260904175759 13 0 0.0 0.0 0.03 4.57 1.85 96 1010.9
20260904175246 13 0 0.0 0.0 0.03 4.57 1.85 96 1010.8
20260904174733 13 0 0.0 0.0 0.05 4.57 1.85 96 1010.8
20260904173707 13 0 0.0 0.0 0.08 4.57 1.85 96 1010.6
20260904173154 12 0 0.0 0.0 0.08 4.57 1.85 96 1010.5
20260904172641 13 0 0.0 0.0 0.13 4.57 1.85 96 1010.5
20260904172129 13 0 0.0 0.0 0.13 4.57 1.85 96 1010.4
20260904171102 12 0 0.0 0.0 0.15 4.57 1.85 96 1010.4
20260904170549 13 0 0.0 0.0 0.13 4.57 1.83 96 1010.5
20260904170036 12 0 0.0 0.0 0.13 4.57 1.83 96 1010.4
20260904165010 12 0 0.0 0.0 0.13 4.47 1.83 96 1010.3
20260904164457 12 0 0.0 0.0 0.10 4.47 1.80 96 1010.3
20260904163944 12 0 0.0 0.0 0.10 4.47 1.80 96 1010.2
20260904163431 12 0 0.0 0.0 0.08 4.47 1.80 96 1010.3
20260904162918 12 0 0.0 0.0 0.05 4.47 1.78 96 1010.2
20260904162405 12 0 0.0 0.0 0.05 4.47 1.78 96 1010.2
20260904161852 12 0 0.0 0.0 0.08 4.47 1.73 96 1010.2
20260904160314 12 0 0.0 0.0 0.10 4.47 1.70 96 1010.2
20260904155800 12 0 0.0 0.0 0.13 4.37 1.70 96 1010.2
20260904155247 12 0 0.0 0.0 0.13 4.37 1.70 96 1010.1
20260904154734 12 0 0.0 0.0 0.18 4.37 1.70 96 1010.1
20260904154221 12 0 0.0 0.0 0.18 4.37 1.70 96 1010.1
20260904153155 12 0 0.0 0.0 0.18 4.37 1.70 96 1009.9
20260904152129 12 0 0.0 0.0 0.15 4.37 1.68 96 1009.9
20260904151616 12 0 0.0 0.0 0.10 4.37 1.65 96 1009.9
20260904151103 12 0 0.0 0.0 0.10 4.37 1.63 96 1009.8
20260904150037 12 0 0.0 0.0 0.08 4.37 1.60 96 1009.7
20260904145524 12 0 0.0 0.0 0.08 4.29 1.60 96 1009.6
20260904145011 12 0 0.0 0.0 0.08 4.29 1.57 96 1009.5
20260904144458 12 0 0.0 0.0 0.05 4.29 1.55 96 1009.5
20260904143945 12 0 0.0 0.0 0.05 4.29 1.52 96 1009.4
20260904143432 12 0 0.0 0.0 0.05 4.29 1.52 96 1009.3
20260904142919 12 0 0.0 0.0 0.05 4.29 1.52 96 1009.2
20260904142406 12 0 0.0 0.0 0.05 4.29 1.52 96 1009.1
20260904141853 12 0 0.0 0.0 0.10 4.29 1.52 96 1009.0
20260904141341 12 0 0.0 0.0 0.10 4.29 1.52 96 1009.1
20260904140828 12 0 0.0 0.0 0.15 4.29 1.52 96 1008.9
20260904140314 12 0 0.0 0.0 0.15 4.29 1.52 96 1008.8
20260904135801 12 0 0.0 0.0 0.25 4.14 1.50 96 1008.7
20260904135248 12 0 0.0 0.0 0.25 4.14 1.50 96 1008.7
20260904134735 12 0 0.0 14.5 0.23 4.14 1.50 96 1008.7
20260904134222 12 0 0.0 14.5 0.23 4.14 1.47 96 1008.6
20260904133709 12 176 3.2 14.5 0.23 4.14 1.47 96 1008.5
20260904133156 12 0 0.0 11.3 0.23 4.14 1.47 96 1008.4
20260904132643 12 0 0.0 11.3 0.23 4.14 1.47 96 1008.3
20260904132130 12 142 0.0 11.3 0.23 4.14 1.47 96 1008.3
20260904131617 12 0 0.0 0.0 0.18 4.14 1.47 96 1008.2
20260904131104 12 0 0.0 14.5 0.18 4.14 1.42 96 1008.1
20260904130551 12 0 0.0 14.5 0.15 4.14 1.37 96 1008.0
20260904125525 12 0 0.0 9.7 0.05 4.01 1.32 96 1007.9
20260904125012 12 0 0.0 9.7 0.05 4.01 1.24 96 1007.9
20260904124459 12 0 0.0 9.7 0.10 4.01 1.24 96 1007.9
20260904123946 12 0 0.0 0.0 0.10 4.01 1.24 96 1007.8
20260904123433 12 0 0.0 19.3 0.46 4.01 1.24 96 1007.9
20260904122920 12 0 0.0 19.3 0.56 4.01 1.24 96 1007.9
20260904122407 12 133 0.0 19.3 0.56 4.01 1.24 96 1007.8
20260904121854 12 0 0.0 0.0 0.64 4.01 1.24 96 1007.7
20260904121341 12 0 0.0 0.0 0.64 4.01 1.24 96 1007.8
20260904120830 12 0 0.0 4.8 0.66 4.01 1.24 96 1007.6
20260904120315 11 0 0.0 4.8 0.66 4.01 1.24 96 1007.6
20260904115802 12 0 0.0 4.8 0.74 3.99 1.22 96 1007.5
20260904115249 12 0 0.0 0.0 0.74 3.99 1.19 96 1007.3
20260904114736 12 0 0.0 4.8 0.84 3.99 1.19 96 1007.2
20260904114223 12 114 0.0 4.8 0.84 3.99 1.17 96 1007.1
20260904113710 12 0 0.0 4.8 0.53 3.99 1.09 96 1006.9
20260904113157 11 85 0.0 4.8 0.53 3.99 0.86 96 1007.1
20260904112644 12 0 0.0 0.0 0.46 3.99 0.74 96 1007.1
20260904112131 12 0 0.0 0.0 0.46 3.99 0.69 96 1007.1
20260904111618 11 0 0.0 0.0 0.38 3.99 0.66 96 1007.0
20260904105526 12 0 0.0 0.0 0.25 3.78 0.51 96 1006.7
20260904105013 12 0 0.0 0.0 0.25 3.78 0.46 96 1006.8
20260904104500 11 0 0.0 0.0 0.18 3.78 0.36 96 1007.1
20260904103947 11 0 0.0 0.0 0.18 3.78 0.30 96 1007.0
20260904103434 12 0 0.0 0.0 0.18 3.78 0.28 96 1007.0
20260904102921 12 0 0.0 0.0 0.18 3.78 0.25 95 1007.0
20260904102408 11 0 0.0 0.0 0.18 3.78 0.23 96 1006.9
20260904101855 11 0 0.0 0.0 0.18 3.78 0.23 96 1006.9
20260904101342 11 0 0.0 0.0 0.18 3.78 0.23 95 1006.7
20260904100829 12 0 0.0 0.0 0.18 3.78 0.23 95 1006.9
20260904100316 11 0 0.0 0.0 0.18 3.78 0.23 95 1006.9
20260904095803 11 0 0.0 0.0 0.15 3.63 0.23 95 1006.9
20260904095250 12 0 0.0 0.0 0.15 3.63 0.20 95 1007.0
20260904094737 12 0 0.0 0.0 0.08 3.63 0.18 96 1007.0
20260904094224 11 0 0.0 0.0 0.08 3.63 0.13 95 1007.1
20260904093711 11 0 0.0 0.0 0.08 3.63 0.13 95 1007.2
20260904093158 11 0 0.0 0.0 0.08 3.63 0.10 95 1007.1
20260904092132 11 0 0.0 0.0 0.05 3.63 0.05 95 1007.2
20260904091619 11 0 0.0 0.0 0.05 3.63 0.05 95 1007.2
20260904091106 11 0 0.0 0.0 0.05 3.63 0.05 95 1007.2
20260904090553 11 0 0.0 0.0 0.05 3.63 0.05 95 1007.2
20260904090040 12 0 0.0 0.0 0.05 3.63 0.05 95 1007.3
20260904085527 12 0 0.0 0.0 0.05 3.58 0.05 95 1007.3
20260904085014 11 0 0.0 0.0 0.05 3.58 0.05 95 1007.3
20260904084501 11 0 0.0 0.0 0.05 3.58 0.05 95 1007.3
20260904083948 12 0 0.0 0.0 0.05 3.58 0.05 95 1007.2
20260904083435 11 0 0.0 0.0 0.00 3.58 0.05 95 1007.2
20260904082922 11 0 0.0 0.0 0.03 3.58 0.00 95 1007.2
20260904082409 11 0 0.0 0.0 0.03 3.58 0.00 95 1007.2
20260904081856 11 0 0.0 0.0 0.05 3.58 0.00 95 1007.2
20260904081343 11 0 0.0 0.0 0.05 3.58 0.00 95 1007.1
20260904080830 11 0 0.0 0.0 0.05 3.58 0.00 95 1007.0
20260904080317 11 0 0.0 0.0 0.05 3.58 0.00 95 1006.9
20260904075804 11 0 0.0 0.0 0.05 3.58 0.00 95 1007.0
20260904075251 12 0 0.0 0.0 0.05 3.58 3.58 95 1007.0
20260904074738 12 0 0.0 0.0 0.08 3.58 3.58 95 1007.0
20260904074225 12 0 0.0 0.0 0.08 3.58 3.58 95 1007.0
20260904073712 12 0 0.0 0.0 0.08 3.58 3.58 95 1007.0
20260904073158 12 0 0.0 0.0 0.08 3.58 3.58 95 1007.0
20260904072646 11 0 0.0 0.0 0.08 3.58 3.58 95 1007.0
20260904072133 12 0 0.0 0.0 0.08 3.56 3.56 95 1007.0
20260904071620 12 0 0.0 0.0 0.18 3.56 3.56 95 1007.0
20260904071106 12 0 0.0 0.0 0.18 3.53 3.53 95 1006.9
20260904070553 12 0 0.0 0.0 0.53 3.53 3.53 95 1006.8
20260904070040 12 0 0.0 0.0 0.53 3.53 3.53 95 1006.8
20260904065528 12 0 0.0 0.0 0.69 3.53 3.53 95 1006.8
20260904065014 12 0 0.0 0.0 0.69 3.53 3.53 95 1006.7
20260904064502 12 0 0.0 0.0 0.69 3.51 3.51 94 1006.6
20260904063948 12 0 0.0 9.7 0.69 3.51 3.51 94 1006.6
20260904063435 12 0 0.0 9.7 0.74 3.51 3.51 94 1006.7
20260904062922 12 100 3.2 9.7 0.71 3.51 3.51 94 1006.6
20260904062409 12 0 0.0 0.0 0.71 3.48 3.48 94 1006.7
20260904062102 12 0 0.0 0.0 0.61 3.45 3.48 94 1006.5
20260904061856 12 0 0.0 0.0 0.61 3.45 3.48 94 1006.5
20260904061343 12 0 0.0 0.0 0.61 3.43 3.43 94 1006.6
20260904060830 12 0 0.0 0.0 0.33 3.25 3.30 94 1006.7
20260904060317 12 0 0.0 0.0 0.33 3.10 3.12 94 1006.7
20260904055804 12 0 0.0 0.0 0.28 2.95 2.97 94 1006.7
20260904055251 12 0 0.0 0.0 0.28 2.87 2.87 94 1006.6
20260904054738 12 0 0.0 9.7 0.28 2.84 2.84 94 1006.4
20260904054226 12 0 0.0 9.7 0.28 2.82 2.82 94 1006.5
20260904053712 12 142 0.0 9.7 0.25 2.79 2.82 94 1006.6
20260904052133 12 0 0.0 0.0 0.25 2.77 2.77 94 1006.8
20260904051107 11 0 0.0 0.0 0.25 2.74 2.74 94 1007.0
20260904050554 12 0 0.0 0.0 0.23 2.72 2.72 94 1007.2
20260904045528 12 0 0.0 0.0 0.18 2.64 2.64 94 1007.2
20260904045016 11 0 0.0 0.0 0.18 2.57 2.59 94 1007.3
20260904043949 12 0 0.0 0.0 0.23 2.54 2.54 94 1007.1
20260904043436 12 0 0.0 0.0 0.25 2.51 2.51 94 1007.1
20260904042923 12 0 0.0 0.0 0.30 2.51 2.51 93 1007.1
20260904042410 12 0 0.0 6.4 0.30 2.51 2.51 93 1007.2
20260904041858 12 0 0.0 6.4 0.30 2.51 2.51 93 1007.2
20260904041344 12 92 0.0 6.4 0.30 2.51 2.51 93 1007.2
20260904040831 12 0 0.0 0.0 0.28 2.49 2.49 93 1007.2
20260904040318 12 0 0.0 0.0 0.28 2.46 2.46 93 1007.3
20260904035805 12 0 0.0 6.4 0.23 2.41 2.41 93 1007.4
20260904035408 12 232 0.0 6.4 0.23 2.41 2.41 93 1007.5
20260904035252 12 232 0.0 6.4 0.23 2.41 2.41 93 1007.5
20260904034739 12 0 0.0 6.4 0.18 2.39 2.39 93 1007.6
20260904034226 12 232 0.0 12.9 0.18 2.31 2.34 93 1007.5
20260904033713 12 184 0.0 12.9 0.18 2.29 2.29 93 1007.4
20260904033200 12 175 0.0 12.9 0.18 2.26 2.26 93 1007.4
20260904032647 12 233 1.6 12.9 0.15 2.24 2.24 93 1007.4
20260904032135 12 201 4.8 20.9 0.15 2.21 2.21 93 1007.4
20260904031622 12 242 0.0 20.9 0.13 2.18 2.21 93 1007.5
20260904031108 12 141 0.0 20.9 0.13 2.18 2.18 93 1007.4
20260904030555 12 236 1.6 22.5 0.15 2.18 2.18 93 1007.3
20260904025529 12 0 3.2 22.5 0.15 2.16 2.16 92 1007.2
20260904025016 12 191 6.4 22.5 0.15 2.16 2.16 92 1007.4